Location: Newark
(13.8625°N, 100.5144°E)
Time: 03:30:16
(UTC+00:00)

Hubble Space Telescope - Pass Details

Date: 17 May 2021
Orbit: 535 x 539 km, 28.5° (Epoch: 21 June)

Event Time Altitude Azimuth Distance (km) Brightness Sun altitude
Exits shadow 21:30:52 43° 272° (W) 750 1.1 -18.6°
Maximum altitude 21:32:00 64° 334° (NNW) 587 0.9 -18.4°
Drops below altitude 10° 21:36:05 10° 57° (ENE) 1,773 4.7 -17.5°
Sets 21:38:21 0° 60° (ENE) 2,662 6.1 -17.0°
